STARLINK-32955, 63117

Orbit data source: Space-Track

STARLINK-32955, 63117 is a payload satellite owned by SpaceX/Seattle (US) in LEO that was launched on Thu, 27 Feb 2025 UTC via an FALCON 9 launch vehicle from the Air Force Eastern Test Range (AFETR). Payload-class satellites include a variety of spacecraft equipped with specific instruments for various scientific and technological missions. These include communications satellites like Starlink; space stations such as the ISS; scientific satellites like the Hubble; Earth observation satellites from companies like Planet Labs, Umbra, and HawkEye 360; GPS; miniature CubeSats for education and research; and military/defense satellites.

Loading next visibility...
Identifier
63117, 2025-039P
Orbit
LEO
Country
Flag of USUS
Related business
Manufacturer
SpaceX/Seattle
Mission
Operational Commercial Communications
Bus & Motor
STARLINK V2M, Unknown motor
Mass
730 kg wet, ~700 kg dry
Launch date (UTC)
2025-02-27 (1 year ago)
Launch vehicle
FALCON 9
Launch site
Air Force Eastern Test Range (AFETR)
Object type
Payload
Rocket body
Debris
Shape & HBR
Box + 2 Pan, 17.7 m
Radar Cross Section
33.884 m², Large (>1 m²)

Expand to show TLE details & history
Last TLE update: 9 hours ago

TLE from 9 hours ago
0 STARLINK-32955
1 63117U 25039P   26073.58335648  .00188437  00000-0  49503-2 0  9991
2 63117  43.0006 343.4428 0011174 228.4185 177.8024 15.37103645  5868
Epoch: 2026-03-14T14:00Z
TLE epoch observation values (Epoch: 2026-03-14T14:00:01.999Z)
Latitude
29.61343°
Longitude
-1.4575°
Altitude
462.817 km
Speed
7.636 km/s
True Right ascension
01h 23m 00s
True Declination
29° 27' 34"
Sunlit
Object was in daylight at epoch
Visualization orbit readout
Latitude
Unknown
Longitude
Unknown
Altitude
Unknown
Speed
Unknown
Apparent Right ascension
Unknown
Apparent Declination
Unknown
Sunlit
N/A
Visualization observer readout
Local Sidereal Time
03:53:18
Azimuth
Unknown
Elevation
Unknown
Doppler factor
Unknown
Orbital elements
Apogee altitude
464.27 km
Perigee altitude
448.995 km
Semi-major axis
6,834.769 km
Eccentricity
0.00112
Inclination
43.0006°
RAAN
343.4428°
Arg. of periapsis
228.4185°
True anomaly
177.8073°
Mean anomaly
177.8024°
Eccentric anomaly
177.80485°
Mean motion
3.84112 °/min
Orbital period
93.72 mins
BSTAR
0.0049503
Loading maneuver chart data...
Computing Atmospheric mass density...
Loading historical data...
Loading historical data...
Loading historical data...
Loading historical data...
Loading historical data...
Loading historical data...
Loading historical data...

Documentation

Showing up to 5 results
|